RYR84KW LFOB-EYVI

Flight info

Callsign RYR84KW
Flight time 2h 21m
Altitude 37000
Route RANUX DCT MEDOX DCT VALEK DCT LIMGO DCT NEGIX DCT MAGES DCT MILGU DCT OLBIK L735 SUWGI DCT VABER DCT DIMTA
Aircraft B738/M-SDE2E3FGHIRWXY/LB1

Departure

Time 2026-04-21 13:58
Airport Beauvais-Tillé airport (LFOB)

Arrival

Time 2026-04-21 16:20
Airport Vilnius International Airport (EYVI)
Time Latitude Longitude Altitude Speed Heading
2026-04-21 13:35 49.45928 2.11460 350 ft 0 kts 311°
2026-04-21 13:49 49.45923 2.11471 350 ft 4 kts 310°
2026-04-21 13:49 49.45907 2.11503 356 ft 4 kts 300°
2026-04-21 13:50 49.45896 2.11541 355 ft 4 kts 277°
2026-04-21 13:50 49.45900 2.11574 357 ft 2 kts 223°
2026-04-21 13:50 49.45901 2.11576 358 ft 1 kts 222°
2026-04-21 13:52 49.45899 2.11573 357 ft 4 kts 222°
2026-04-21 13:53 49.45852 2.11508 350 ft 11 kts 222°
2026-04-21 13:53 49.45800 2.11435 354 ft 4 kts 223°
2026-04-21 13:53 49.45775 2.11400 357 ft 5 kts 223°
2026-04-21 13:53 49.45759 2.11377 355 ft 0 kts 221°
2026-04-21 13:54 49.45758 2.11374 353 ft 0 kts 221°
2026-04-21 13:55 49.45752 2.11367 353 ft 7 kts 221°
2026-04-21 13:55 49.45702 2.11256 357 ft 15 kts 271°
2026-04-21 13:55 49.45752 2.11117 350 ft 16 kts 304°
2026-04-21 13:56 49.45777 2.10978 359 ft 14 kts 230°
2026-04-21 13:56 49.45705 2.10910 363 ft 10 kts 208°
2026-04-21 13:56 49.45653 2.10843 355 ft 10 kts 254°
2026-04-21 13:56 49.45684 2.10730 356 ft 14 kts 304°
2026-04-21 13:57 49.45743 2.10597 356 ft 16 kts 304°
2026-04-21 13:57 49.45800 2.10488 357 ft 10 kts 329°
2026-04-21 13:57 49.45846 2.10424 356 ft 10 kts 264°
2026-04-21 13:57 49.45799 2.10452 359 ft 10 kts 123°
2026-04-21 13:58 49.45727 2.10618 357 ft 47 kts 124°
2026-04-21 13:58 49.45403 2.11364 354 ft 119 kts 123°
2026-04-21 13:58 49.44837 2.12637 579 ft 158 kts 120°
2026-04-21 13:58 49.44141 2.14085 1254 ft 178 kts 123°
2026-04-21 13:59 49.43252 2.15326 2524 ft 166 kts 136°
2026-04-21 13:59 49.42309 2.16334 3369 ft 167 kts 138°
2026-04-21 13:59 49.41330 2.17411 3806 ft 186 kts 137°
2026-04-21 13:59 49.40230 2.18668 4049 ft 207 kts 137°
2026-04-21 14:00 49.39018 2.20078 4245 ft 228 kts 137°
2026-04-21 14:00 49.37731 2.21595 4615 ft 243 kts 137°
2026-04-21 14:00 49.36344 2.23242 5033 ft 259 kts 137°
2026-04-21 14:00 49.34912 2.24944 5842 ft 260 kts 138°
2026-04-21 14:01 49.33462 2.26603 6681 ft 260 kts 140°
2026-04-21 14:01 49.31991 2.28215 7318 ft 267 kts 140°
2026-04-21 14:01 49.30445 2.29900 8038 ft 271 kts 140°
2026-04-21 14:01 49.28896 2.31595 8712 ft 277 kts 140°
2026-04-21 14:02 49.27852 2.32740 9168 ft 281 kts 141°
2026-04-21 14:02 49.25720 2.35073 10085 ft 288 kts 141°
2026-04-21 14:02 49.24069 2.36885 10557 ft 300 kts 141°
2026-04-21 14:03 49.21005 2.41596 11303 ft 322 kts 123°
2026-04-21 14:03 49.19718 2.44427 11960 ft 326 kts 122°
2026-04-21 14:03 49.18424 2.47305 12611 ft 331 kts 122°
2026-04-21 14:03 49.17099 2.50227 13238 ft 337 kts 122°
2026-04-21 14:04 49.15746 2.53185 13924 ft 342 kts 122°
2026-04-21 14:04 49.14364 2.56182 14534 ft 348 kts 123°
2026-04-21 14:04 49.12950 2.59232 15119 ft 354 kts 123°
2026-04-21 14:04 49.11513 2.62322 15753 ft 360 kts 123°
2026-04-21 14:05 49.10205 2.65578 16409 ft 362 kts 112°
2026-04-21 14:05 49.09408 2.69238 16999 ft 364 kts 98°
2026-04-21 14:05 49.09156 2.73085 17624 ft 366 kts 88°
2026-04-21 14:05 49.09131 2.76983 18250 ft 370 kts 86°
2026-04-21 14:06 49.09140 2.80931 18792 ft 375 kts 86°
2026-04-21 14:06 49.09152 2.84949 19282 ft 381 kts 86°
2026-04-21 14:06 49.09155 2.89026 19770 ft 388 kts 85°
2026-04-21 14:06 49.09147 2.93145 20245 ft 394 kts 85°
2026-04-21 14:07 49.09130 2.97309 20718 ft 400 kts 85°
2026-04-21 14:07 49.09114 3.00210 21044 ft 404 kts 85°
2026-04-21 14:07 49.09076 3.05997 21681 ft 412 kts 85°
2026-04-21 14:07 49.09055 3.08905 21996 ft 416 kts 84°
2026-04-21 14:08 49.09009 3.14796 22609 ft 423 kts 84°
2026-04-21 14:08 49.08972 3.19325 23066 ft 429 kts 84°
2026-04-21 14:08 49.08946 3.22403 23371 ft 433 kts 84°
2026-04-21 14:08 49.08905 3.27033 23801 ft 439 kts 84°
2026-04-21 14:09 49.08861 3.31703 24198 ft 443 kts 84°
2026-04-21 14:09 49.08813 3.36413 24701 ft 444 kts 84°
2026-04-21 14:09 49.08763 3.41127 25166 ft 446 kts 84°
2026-04-21 14:09 49.08715 3.45816 25585 ft 449 kts 84°
2026-04-21 14:10 49.08664 3.50588 26016 ft 451 kts 84°
2026-04-21 14:10 49.08631 3.55388 26451 ft 451 kts 81°
2026-04-21 14:10 49.08867 3.60141 26815 ft 450 kts 77°
2026-04-21 14:10 49.09198 3.64905 27226 ft 452 kts 76°
2026-04-21 14:11 49.09551 3.69685 27630 ft 454 kts 76°
2026-04-21 14:11 49.09903 3.74492 28005 ft 458 kts 76°
2026-04-21 14:11 49.10247 3.79335 28395 ft 460 kts 76°
2026-04-21 14:11 49.10582 3.84225 28764 ft 463 kts 76°
2026-04-21 14:12 49.10909 3.89125 29114 ft 466 kts 77°
2026-04-21 14:12 49.11233 3.94076 29433 ft 470 kts 77°
2026-04-21 14:12 49.11555 3.99044 29839 ft 471 kts 77°
2026-04-21 14:12 49.11873 4.04014 30344 ft 469 kts 77°
2026-04-21 14:13 49.12188 4.08963 30801 ft 467 kts 77°
2026-04-21 14:13 49.12500 4.13898 31259 ft 464 kts 77°
2026-04-21 14:13 49.12807 4.18733 31656 ft 463 kts 77°
2026-04-21 14:13 49.13117 4.23629 32039 ft 463 kts 78°
2026-04-21 14:14 49.13423 4.28509 32463 ft 461 kts 78°
2026-04-21 14:14 49.13745 4.33368 32885 ft 456 kts 75°
2026-04-21 14:14 49.14380 4.38069 33251 ft 447 kts 66°
2026-04-21 14:14 49.15451 4.42476 33589 ft 440 kts 60°
2026-04-21 14:15 49.16631 4.46780 33940 ft 439 kts 60°
2026-04-21 14:15 49.17825 4.51076 34268 ft 438 kts 60°
2026-04-21 14:15 49.19006 4.55358 34555 ft 437 kts 60°
2026-04-21 14:15 49.20153 4.59572 34822 ft 436 kts 61°
2026-04-21 14:16 49.21314 4.63883 35109 ft 435 kts 62°
2026-04-21 14:16 49.22460 4.68173 35380 ft 435 kts 62°
2026-04-21 14:16 49.23598 4.72454 35633 ft 434 kts 62°
2026-04-21 14:16 49.24729 4.76725 35883 ft 433 kts 62°
2026-04-21 14:17 49.25859 4.80997 36136 ft 433 kts 63°
2026-04-21 14:17 49.26987 4.85273 36399 ft 431 kts 63°
2026-04-21 14:17 49.28108 4.89525 36654 ft 430 kts 63°
2026-04-21 14:17 49.29226 4.93773 36861 ft 430 kts 63°
2026-04-21 14:18 49.30347 4.98039 37056 ft 430 kts 63°
2026-04-21 14:18 49.31464 5.02291 37165 ft 431 kts 63°
2026-04-21 14:18 49.32586 5.06576 37155 ft 432 kts 64°
2026-04-21 14:19 49.34822 5.15081 37167 ft 429 kts 63°
2026-04-21 14:19 49.37064 5.23491 37168 ft 428 kts 63°
2026-04-21 14:20 49.39310 5.31940 37173 ft 426 kts 63°
2026-04-21 14:20 49.41552 5.40416 37187 ft 433 kts 63°
2026-04-21 14:21 49.43830 5.49070 37188 ft 441 kts 64°
2026-04-21 14:21 49.46104 5.57748 37189 ft 449 kts 64°
2026-04-21 14:22 49.48449 5.66736 37183 ft 456 kts 64°
2026-04-21 14:22 49.50825 5.75870 37185 ft 463 kts 64°
2026-04-21 14:23 49.53186 5.85175 37187 ft 469 kts 65°
2026-04-21 14:23 49.55498 5.94609 37186 ft 472 kts 65°
2026-04-21 14:24 49.57815 6.04082 37176 ft 471 kts 65°
2026-04-21 14:24 49.60103 6.13438 37179 ft 462 kts 65°
2026-04-21 14:25 49.62363 6.22694 37198 ft 461 kts 66°
2026-04-21 14:25 49.64778 6.31739 37188 ft 457 kts 59°
2026-04-21 14:26 49.67750 6.40400 37193 ft 456 kts 58°
2026-04-21 14:26 49.70791 6.49023 37187 ft 457 kts 58°
2026-04-21 14:27 49.73795 6.57701 37183 ft 458 kts 58°
2026-04-21 14:27 49.76543 6.65764 37185 ft 459 kts 59°
2026-04-21 14:28 49.79507 6.74523 37187 ft 460 kts 59°
2026-04-21 14:28 49.82466 6.83300 37183 ft 460 kts 59°
2026-04-21 14:29 49.85405 6.92041 37191 ft 460 kts 59°
2026-04-21 14:29 49.88362 7.00866 37209 ft 461 kts 59°
2026-04-21 14:30 49.91308 7.09690 37216 ft 460 kts 59°
2026-04-21 14:30 49.94245 7.18516 37208 ft 459 kts 59°
2026-04-21 14:31 49.97171 7.27341 37182 ft 458 kts 59°
2026-04-21 14:31 50.00081 7.36148 37183 ft 457 kts 60°
2026-04-21 14:32 50.02959 7.44888 37194 ft 456 kts 60°
2026-04-21 14:32 50.05835 7.53654 37200 ft 455 kts 60°
2026-04-21 14:33 50.08706 7.62433 37207 ft 454 kts 60°
2026-04-21 14:33 50.11557 7.71181 37216 ft 453 kts 60°
2026-04-21 14:34 50.14400 7.79936 37226 ft 452 kts 60°
2026-04-21 14:34 50.17240 7.88713 37218 ft 453 kts 60°
2026-04-21 14:35 50.20070 7.97488 37218 ft 453 kts 60°
2026-04-21 14:35 50.22879 8.06233 37227 ft 454 kts 60°
2026-04-21 14:36 50.25703 8.15052 37221 ft 454 kts 60°
2026-04-21 14:36 50.28446 8.23648 37222 ft 455 kts 61°
2026-04-21 14:37 50.31261 8.32503 37224 ft 455 kts 61°
2026-04-21 14:37 50.34071 8.41376 37229 ft 455 kts 61°
2026-04-21 14:38 50.36880 8.50271 37237 ft 455 kts 61°
2026-04-21 14:38 50.39669 8.59156 37232 ft 455 kts 62°
2026-04-21 14:39 50.42441 8.68064 37241 ft 454 kts 62°
2026-04-21 14:39 50.45202 8.76968 37236 ft 454 kts 62°
2026-04-21 14:40 50.47954 8.85870 37232 ft 453 kts 62°
2026-04-21 14:40 50.50700 8.94785 37231 ft 453 kts 62°
2026-04-21 14:41 50.53417 9.03636 37231 ft 452 kts 62°
2026-04-21 14:41 50.56141 9.12541 37231 ft 452 kts 62°
2026-04-21 14:42 50.58859 9.21461 37228 ft 451 kts 62°
2026-04-21 14:42 50.61563 9.30366 37233 ft 451 kts 62°
2026-04-21 14:43 50.64257 9.39270 37229 ft 450 kts 62°
2026-04-21 14:43 50.66935 9.48156 37236 ft 449 kts 62°
2026-04-21 14:44 50.69610 9.57061 37235 ft 448 kts 62°
2026-04-21 14:44 50.72271 9.65954 37244 ft 448 kts 62°
2026-04-21 14:45 50.74918 9.74836 37244 ft 447 kts 63°
2026-04-21 14:45 50.77558 9.83726 37249 ft 447 kts 63°
2026-04-21 14:46 50.80174 9.92566 37252 ft 446 kts 63°
2026-04-21 14:46 50.82796 10.01455 37249 ft 446 kts 63°
2026-04-21 14:47 50.85393 10.10374 37247 ft 446 kts 64°
2026-04-21 14:47 50.87783 10.19442 37258 ft 446 kts 66°
2026-04-21 14:48 50.90103 10.28535 37236 ft 446 kts 66°
2026-04-21 14:48 50.92440 10.37649 37263 ft 445 kts 66°
2026-04-21 14:49 50.94780 10.46729 37263 ft 445 kts 66°
2026-04-21 14:49 50.97103 10.55753 37268 ft 444 kts 66°
2026-04-21 14:50 50.99055 10.63359 37260 ft 444 kts 66°
2026-04-21 14:50 51.01750 10.73906 37260 ft 443 kts 66°
2026-04-21 14:51 51.04059 10.82987 37267 ft 442 kts 66°
2026-04-21 14:51 51.06359 10.92068 37268 ft 442 kts 66°
2026-04-21 14:52 51.08650 11.01151 37271 ft 442 kts 66°
2026-04-21 14:52 51.10542 11.08679 37259 ft 441 kts 66°
2026-04-21 14:53 51.12814 11.17753 37263 ft 441 kts 67°
2026-04-21 14:53 51.15080 11.26837 37260 ft 441 kts 67°
2026-04-21 14:54 51.17699 11.37386 37262 ft 440 kts 67°
2026-04-21 14:54 51.19577 11.44984 37262 ft 440 kts 67°
2026-04-21 14:55 51.21822 11.54097 37259 ft 440 kts 67°
2026-04-21 14:55 51.24039 11.63135 37260 ft 440 kts 67°
2026-04-21 14:56 51.26262 11.72233 37252 ft 440 kts 67°
2026-04-21 14:56 51.28478 11.81341 37257 ft 439 kts 68°
2026-04-21 14:57 51.30681 11.90436 37260 ft 439 kts 68°
2026-04-21 14:57 51.32862 11.99476 37263 ft 439 kts 68°
2026-04-21 14:58 51.35039 12.08534 37265 ft 438 kts 68°
2026-04-21 14:58 51.37217 12.17638 37262 ft 438 kts 68°
2026-04-21 14:59 51.39391 12.26763 37264 ft 438 kts 68°
2026-04-21 14:59 51.41558 12.35893 37273 ft 438 kts 68°
2026-04-21 15:00 51.43714 12.45018 37265 ft 438 kts 68°
2026-04-21 15:00 51.45862 12.54149 37264 ft 437 kts 68°
2026-04-21 15:01 51.47990 12.63235 37256 ft 437 kts 69°
2026-04-21 15:01 51.50123 12.72378 37259 ft 437 kts 69°
2026-04-21 15:02 51.52249 12.81530 37255 ft 437 kts 69°
2026-04-21 15:02 51.54369 12.90695 37259 ft 437 kts 69°
2026-04-21 15:03 51.56480 12.99857 37263 ft 437 kts 69°
2026-04-21 15:03 51.58814 13.08874 37259 ft 436 kts 64°
2026-04-21 15:04 51.61463 13.17651 37267 ft 436 kts 63°
2026-04-21 15:04 51.64078 13.26450 37273 ft 435 kts 64°
2026-04-21 15:05 51.66630 13.35222 37259 ft 435 kts 64°
2026-04-21 15:05 51.70419 13.48477 37259 ft 433 kts 65°
2026-04-21 15:06 51.72928 13.57305 37252 ft 432 kts 65°
2026-04-21 15:06 51.75405 13.66045 37247 ft 431 kts 65°
2026-04-21 15:07 51.77915 13.74927 37244 ft 430 kts 65°
2026-04-21 15:07 51.80374 13.83665 37238 ft 429 kts 65°
2026-04-21 15:08 51.82836 13.92439 37239 ft 428 kts 65°
2026-04-21 15:08 51.85292 14.01204 37237 ft 427 kts 64°
2026-04-21 15:09 51.87782 14.09935 37236 ft 427 kts 64°
2026-04-21 15:09 51.90245 14.18613 37240 ft 427 kts 65°
2026-04-21 15:10 51.92669 14.27374 37245 ft 427 kts 65°
2026-04-21 15:10 51.95079 14.36176 37236 ft 427 kts 65°
2026-04-21 15:11 51.97487 14.44984 37243 ft 427 kts 65°
2026-04-21 15:11 51.99892 14.53801 37237 ft 427 kts 65°
2026-04-21 15:12 52.02294 14.62636 37241 ft 428 kts 65°
2026-04-21 15:12 52.04689 14.71475 37242 ft 428 kts 65°
2026-04-21 15:13 52.07119 14.80306 37238 ft 428 kts 64°
2026-04-21 15:13 52.09692 14.89047 37238 ft 428 kts 64°
2026-04-21 15:14 52.12275 14.97777 37238 ft 428 kts 64°
2026-04-21 15:14 52.14836 15.06527 37234 ft 428 kts 64°
2026-04-21 15:15 52.17366 15.15247 37237 ft 428 kts 64°
2026-04-21 15:15 52.19896 15.24011 37232 ft 428 kts 64°
2026-04-21 15:16 52.22423 15.32803 37235 ft 427 kts 64°
2026-04-21 15:16 52.24895 15.41432 37224 ft 427 kts 64°
2026-04-21 15:17 52.27403 15.50214 37225 ft 427 kts 64°
2026-04-21 15:17 52.29901 15.58999 37221 ft 426 kts 64°
2026-04-21 15:18 52.32399 15.67814 37219 ft 426 kts 64°
2026-04-21 15:18 52.34866 15.76555 37223 ft 426 kts 64°
2026-04-21 15:19 52.37342 15.85358 37220 ft 426 kts 64°
2026-04-21 15:19 52.39813 15.94177 37224 ft 426 kts 65°
2026-04-21 15:20 52.42274 16.02996 37226 ft 425 kts 65°
2026-04-21 15:20 52.44727 16.11817 37227 ft 425 kts 65°
2026-04-21 15:21 52.47174 16.20650 37224 ft 425 kts 65°
2026-04-21 15:21 52.49615 16.29497 37224 ft 425 kts 65°
2026-04-21 15:22 52.52052 16.38360 37222 ft 425 kts 65°
2026-04-21 15:22 52.54463 16.47164 37221 ft 425 kts 65°
2026-04-21 15:23 52.56881 16.56028 37216 ft 426 kts 65°
2026-04-21 15:23 52.59297 16.64918 37216 ft 426 kts 65°
2026-04-21 15:24 52.61705 16.73813 37214 ft 426 kts 65°
2026-04-21 15:24 52.64108 16.82724 37222 ft 426 kts 65°
2026-04-21 15:25 52.66502 16.91638 37217 ft 426 kts 65°
2026-04-21 15:25 52.68893 17.00566 37217 ft 426 kts 65°
2026-04-21 15:26 52.71260 17.09449 37208 ft 426 kts 65°
2026-04-21 15:26 52.73636 17.18398 37223 ft 426 kts 65°
2026-04-21 15:27 52.76002 17.27348 37223 ft 425 kts 65°
2026-04-21 15:27 52.78364 17.36313 37209 ft 426 kts 65°
2026-04-21 15:28 52.80718 17.45287 37208 ft 426 kts 65°
2026-04-21 15:28 52.83067 17.54270 37227 ft 425 kts 65°
2026-04-21 15:29 52.85410 17.63269 37214 ft 425 kts 65°
2026-04-21 15:29 52.87744 17.72269 37213 ft 426 kts 65°
2026-04-21 15:30 52.90057 17.81222 37211 ft 426 kts 65°
2026-04-21 15:30 52.92379 17.90243 37210 ft 426 kts 65°
2026-04-21 15:31 52.94696 17.99285 37213 ft 426 kts 65°
2026-04-21 15:31 52.97006 18.08334 37212 ft 426 kts 65°
2026-04-21 15:32 52.99310 18.17397 37211 ft 426 kts 66°
2026-04-21 15:32 53.01610 18.26482 37215 ft 426 kts 66°
2026-04-21 15:33 53.03902 18.35571 37207 ft 427 kts 66°
2026-04-21 15:33 53.06188 18.44672 37209 ft 427 kts 66°
2026-04-21 15:34 53.08468 18.53789 37209 ft 427 kts 66°
2026-04-21 15:34 53.10738 18.62904 37203 ft 427 kts 66°
2026-04-21 15:35 53.13006 18.72047 37208 ft 427 kts 66°
2026-04-21 15:35 53.15249 18.81126 37207 ft 427 kts 66°
2026-04-21 15:36 53.17501 18.90279 37204 ft 427 kts 66°
2026-04-21 15:36 53.19748 18.99452 37201 ft 427 kts 66°
2026-04-21 15:37 53.21987 19.08631 37202 ft 427 kts 66°
2026-04-21 15:37 53.24220 19.17822 37197 ft 427 kts 66°
2026-04-21 15:38 53.26447 19.27027 37196 ft 427 kts 66°
2026-04-21 15:38 53.28665 19.36236 37192 ft 427 kts 66°
2026-04-21 15:39 53.30877 19.45458 37190 ft 427 kts 66°
2026-04-21 15:39 53.33078 19.54676 37186 ft 427 kts 66°
2026-04-21 15:40 53.35279 19.63929 37183 ft 427 kts 66°
2026-04-21 15:40 53.37457 19.73123 37180 ft 427 kts 66°
2026-04-21 15:41 53.39636 19.82366 37179 ft 427 kts 66°
2026-04-21 15:41 53.41813 19.91636 37173 ft 427 kts 67°
2026-04-21 15:42 53.43614 19.99341 37170 ft 427 kts 67°
2026-04-21 15:42 53.45776 20.08620 37169 ft 427 kts 67°
2026-04-21 15:43 53.47930 20.17910 37173 ft 427 kts 67°
2026-04-21 15:43 53.50080 20.27219 37165 ft 427 kts 67°
2026-04-21 15:44 53.52224 20.36547 37164 ft 428 kts 67°
2026-04-21 15:44 53.54361 20.45877 37162 ft 428 kts 67°
2026-04-21 15:45 53.56489 20.55213 37156 ft 428 kts 67°
2026-04-21 15:45 53.58613 20.64567 37156 ft 428 kts 67°
2026-04-21 15:46 53.60729 20.73926 37158 ft 428 kts 68°
2026-04-21 15:46 53.62838 20.83294 37158 ft 428 kts 68°
2026-04-21 15:47 53.64939 20.92670 37156 ft 428 kts 68°
2026-04-21 15:47 53.67019 21.01995 37157 ft 428 kts 68°
2026-04-21 15:48 53.69109 21.11405 37151 ft 428 kts 68°
2026-04-21 15:48 53.71185 21.20814 37155 ft 428 kts 68°
2026-04-21 15:49 53.73104 21.30343 37152 ft 428 kts 70°
2026-04-21 15:49 53.74949 21.39915 37149 ft 428 kts 70°
2026-04-21 15:50 53.76799 21.49481 37148 ft 429 kts 70°
2026-04-21 15:50 53.78650 21.59013 37146 ft 429 kts 70°
2026-04-21 15:51 53.80508 21.68593 37147 ft 429 kts 70°
2026-04-21 15:51 53.82363 21.78201 37149 ft 429 kts 70°
2026-04-21 15:52 53.84207 21.87802 37145 ft 429 kts 70°
2026-04-21 15:52 53.86046 21.97422 37146 ft 429 kts 70°
2026-04-21 15:53 53.87877 22.07052 37148 ft 429 kts 70°
2026-04-21 15:53 53.89698 22.16679 37139 ft 429 kts 70°
2026-04-21 15:54 53.91510 22.26308 37142 ft 429 kts 70°
2026-04-21 15:54 53.92421 22.31164 36773 ft 434 kts 70°
2026-04-21 15:54 53.93319 22.35970 36388 ft 433 kts 70°
2026-04-21 15:55 53.94226 22.40832 35737 ft 433 kts 70°
2026-04-21 15:55 53.95130 22.45696 35153 ft 430 kts 70°
2026-04-21 15:55 53.96013 22.50455 34617 ft 429 kts 70°
2026-04-21 15:55 53.96918 22.55347 34124 ft 426 kts 70°
2026-04-21 15:56 53.97803 22.60147 33548 ft 423 kts 70°
2026-04-21 15:56 53.98677 22.64898 33046 ft 418 kts 70°
2026-04-21 15:56 53.99537 22.69584 32575 ft 413 kts 70°
2026-04-21 15:56 54.00387 22.74229 32121 ft 408 kts 70°
2026-04-21 15:57 54.01224 22.78807 31657 ft 402 kts 70°
2026-04-21 15:57 54.02046 22.83320 31210 ft 398 kts 70°
2026-04-21 15:57 54.02867 22.87833 30767 ft 403 kts 70°
2026-04-21 15:57 54.03700 22.92412 30309 ft 407 kts 70°
2026-04-21 15:58 54.04532 22.97005 29774 ft 406 kts 70°
2026-04-21 15:58 54.05361 23.01593 29282 ft 406 kts 70°
2026-04-21 15:58 54.06188 23.06193 28783 ft 405 kts 70°
2026-04-21 15:58 54.07012 23.10780 28281 ft 406 kts 70°
2026-04-21 15:59 54.07835 23.15375 27783 ft 406 kts 70°
2026-04-21 15:59 54.08658 23.19985 27290 ft 407 kts 70°
2026-04-21 15:59 54.09480 23.24596 26787 ft 408 kts 70°
2026-04-21 15:59 54.10294 23.29173 26285 ft 409 kts 70°
2026-04-21 16:00 54.11120 23.33831 25777 ft 411 kts 70°
2026-04-21 16:00 54.11947 23.38504 25256 ft 413 kts 70°
2026-04-21 16:00 54.12778 23.43216 24739 ft 416 kts 70°
2026-04-21 16:00 54.13621 23.48008 24213 ft 418 kts 70°
2026-04-21 16:01 54.14459 23.52781 23693 ft 421 kts 71°
2026-04-21 16:01 54.15287 23.57514 23106 ft 420 kts 71°
2026-04-21 16:01 54.16117 23.62275 22586 ft 420 kts 71°
2026-04-21 16:01 54.16953 23.67075 22058 ft 423 kts 71°
2026-04-21 16:02 54.17791 23.71903 21528 ft 424 kts 71°
2026-04-21 16:02 54.18620 23.76697 20998 ft 420 kts 71°
2026-04-21 16:02 54.19442 23.81462 20473 ft 416 kts 71°
2026-04-21 16:02 54.20247 23.86150 19954 ft 408 kts 71°
2026-04-21 16:03 54.21036 23.90749 19441 ft 399 kts 71°
2026-04-21 16:03 54.21807 23.95256 18940 ft 392 kts 71°
2026-04-21 16:03 54.22567 23.99698 18441 ft 387 kts 71°
2026-04-21 16:03 54.23314 24.04075 17883 ft 381 kts 71°
2026-04-21 16:04 54.24047 24.08386 17400 ft 373 kts 71°
2026-04-21 16:04 54.24763 24.12608 16929 ft 366 kts 71°
2026-04-21 16:04 54.25463 24.16738 16481 ft 359 kts 71°
2026-04-21 16:04 54.26150 24.20802 16020 ft 353 kts 71°
2026-04-21 16:05 54.26817 24.24764 15579 ft 348 kts 71°
2026-04-21 16:05 54.27492 24.28702 15138 ft 342 kts 68°
2026-04-21 16:05 54.28624 24.32205 14729 ft 334 kts 50°
2026-04-21 16:05 54.30283 24.34934 14292 ft 329 kts 34°
2026-04-21 16:06 54.32284 24.36791 13887 ft 326 kts 25°
2026-04-21 16:06 54.34359 24.38357 13407 ft 323 kts 24°
2026-04-21 16:06 54.36417 24.39858 12974 ft 320 kts 24°
2026-04-21 16:06 54.38455 24.41354 12551 ft 316 kts 24°
2026-04-21 16:07 54.40467 24.42851 12117 ft 313 kts 25°
2026-04-21 16:07 54.42446 24.44340 11712 ft 307 kts 25°
2026-04-21 16:07 54.44375 24.45802 11319 ft 298 kts 25°
2026-04-21 16:07 54.46247 24.47227 10917 ft 292 kts 25°
2026-04-21 16:08 54.49856 24.49981 10166 ft 275 kts 25°
2026-04-21 16:08 54.51521 24.51400 10017 ft 261 kts 36°
2026-04-21 16:08 54.52734 24.53632 9697 ft 259 kts 57°
2026-04-21 16:09 54.53432 24.56459 9333 ft 257 kts 72°
2026-04-21 16:09 54.53869 24.59427 9001 ft 253 kts 74°
2026-04-21 16:09 54.54275 24.62350 8697 ft 249 kts 74°
2026-04-21 16:09 54.54677 24.65256 8358 ft 250 kts 74°
2026-04-21 16:10 54.55082 24.68164 8034 ft 249 kts 74°
2026-04-21 16:10 54.55490 24.71069 7711 ft 249 kts 74°
2026-04-21 16:10 54.55897 24.73960 7384 ft 249 kts 74°
2026-04-21 16:10 54.56304 24.76853 7070 ft 248 kts 73°
2026-04-21 16:11 54.56707 24.79710 6742 ft 242 kts 73°
2026-04-21 16:11 54.57098 24.82484 6456 ft 234 kts 73°
2026-04-21 16:11 54.57478 24.85184 6142 ft 230 kts 73°
2026-04-21 16:11 54.57852 24.87850 5811 ft 229 kts 73°
2026-04-21 16:12 54.58103 24.89633 5598 ft 232 kts 73°
2026-04-21 16:12 54.58464 24.93296 5429 ft 240 kts 91°
2026-04-21 16:12 54.57876 24.96012 5167 ft 248 kts 122°
2026-04-21 16:12 54.56738 24.98213 4906 ft 244 kts 132°
2026-04-21 16:13 54.55519 25.00226 4614 ft 241 kts 133°
2026-04-21 16:13 54.54335 25.02152 4498 ft 233 kts 133°
2026-04-21 16:13 54.53163 25.04078 4386 ft 227 kts 133°
2026-04-21 16:13 54.52045 25.05937 4282 ft 219 kts 132°
2026-04-21 16:14 54.50973 25.07728 4181 ft 211 kts 132°
2026-04-21 16:14 54.49929 25.09480 4102 ft 208 kts 131°
2026-04-21 16:14 54.48894 25.11217 4042 ft 207 kts 132°
2026-04-21 16:14 54.47877 25.12926 3884 ft 209 kts 132°
2026-04-21 16:15 54.47098 25.14962 3668 ft 202 kts 96°
2026-04-21 16:15 54.47354 25.17155 3499 ft 183 kts 49°
2026-04-21 16:15 54.48375 25.18189 3383 ft 167 kts 15°
2026-04-21 16:15 54.49449 25.18845 3197 ft 161 kts 22°
2026-04-21 16:16 54.50450 25.19560 3127 ft 152 kts 22°
2026-04-21 16:16 54.51428 25.20239 2957 ft 151 kts 21°
2026-04-21 16:16 54.52390 25.20911 2769 ft 149 kts 22°
2026-04-21 16:16 54.53358 25.21588 2572 ft 151 kts 21°
2026-04-21 16:17 54.54330 25.22266 2358 ft 149 kts 21°
2026-04-21 16:17 54.55272 25.22922 2146 ft 141 kts 21°
2026-04-21 16:17 54.56140 25.23525 1957 ft 131 kts 21°
2026-04-21 16:17 54.56982 25.24111 1800 ft 132 kts 21°
2026-04-21 16:18 54.57824 25.24693 1607 ft 132 kts 22°
2026-04-21 16:18 54.58669 25.25282 1431 ft 130 kts 20°
2026-04-21 16:18 54.59500 25.25859 1236 ft 126 kts 20°
2026-04-21 16:18 54.60317 25.26427 1074 ft 130 kts 22°
2026-04-21 16:19 54.61168 25.27017 918 ft 133 kts 21°
2026-04-21 16:19 54.62011 25.27608 716 ft 130 kts 20°
2026-04-21 16:19 54.62834 25.28177 609 ft 122 kts 20°
2026-04-21 16:19 54.63497 25.28631 615 ft 81 kts 22°
2026-04-21 16:20 54.63913 25.28917 640 ft 55 kts 21°
2026-04-21 16:20 54.64174 25.29096 651 ft 33 kts 22°
2026-04-21 16:20 54.64370 25.29233 655 ft 29 kts 22°
2026-04-21 16:20 54.64488 25.29168 657 ft 11 kts 297°
2026-04-21 16:21 54.64521 25.29052 658 ft 10 kts 296°
2026-04-21 16:21 54.64553 25.28944 656 ft 10 kts 296°
2026-04-21 16:21 54.64558 25.28826 656 ft 10 kts 260°
2026-04-21 16:21 54.64543 25.28696 653 ft 12 kts 258°
2026-04-21 16:22 54.64500 25.28617 651 ft 9 kts 169°
2026-04-21 16:22 54.64439 25.28636 650 ft 9 kts 179°
2026-04-21 16:22 54.64408 25.28543 647 ft 11 kts 265°
2026-04-21 16:22 54.64406 25.28401 643 ft 13 kts 266°
2026-04-21 16:23 54.64397 25.28310 641 ft 6 kts 239°
2026-04-21 16:23 54.64375 25.28281 639 ft 0 kts 209°